Hourly Weather Roundup
Issued by NWS Central Illinois

Home | Current Version | Previous Version | Text Only | Print | Product List | Glossary On
Versions: 1 2 3 4 5 6 7 8 9 10 11 12 13 14 15 16 17 18 19 20 21 22 23 24 25 26 27 28 29 30 31 32 33 34 35 36 37 38 39 40 41 42 43 44 45 46 47 48 49 50
000
NZUS43 KILX 231010
HWRILX

AREA WEATHER ROUNDUP
NATIONAL WEATHER SERVICE, LINCOLN IL
500 AM CDT WED APR 23 2014


CITY           SKY/WX    TMP DP  RH WIND       PRES   REMARKS
BLOOMINGTON    PTCLDY    32  27  82 NE10      30.13R WCI  24
CHAMPAIGN      PTCLDY    37  28  70 NE8       30.11R WCI  31
DANVILLE       CLEAR     33  29  85 N8        30.08R WCI  25
DECATUR        CLEAR     34  28  79 E6        30.11R WCI  29
FLORA          NOT AVBL
GALESBURG      CLEAR     36  31  83 E3        30.11R
JACKSONVILLE   CLEAR     38  32  78 E8        30.10S WCI  32
LACON          CLEAR     31  28  86 CALM      30.13R
LAWRENCEVILLE  CLEAR     44  33  65 NE8       30.09R
LITCHFIELD     CLEAR     41  35  78 NE10      30.08R WCI  35
$$


CITY           SKY/WX    TMP DP  RH WIND       PRES   REMARKS
LINCOLN        CLEAR     36  30  80 E3        30.12S
MACOMB         CLEAR     36  32  84 E7        30.11F WCI  31
MATTOON        PTCLDY    37  29  72 NE8       30.09R WCI  31
MT CARMEL AP   CLEAR     46  36  66 NE12      30.08R
OLNEY-NOBLE AP CLEAR     43  36  75 NE6       30.08S
PARIS          PTCLDY    38  30  74 CALM      30.11R
PEORIA         CLEAR     41  27  57 E7        30.12R
PONTIAC        CLEAR     34  30  86 CALM      30.13R
RANTOUL        CLEAR     38  28  69 CALM      30.12S
ROBINSON       CLEAR     42  34  72 NE5       30.10R
SPRINGFIELD    CLEAR     40  30  67 E12       30.11S WCI  33
TAYLORVILLE    CLEAR     39  30  70 E10       30.09S WCI  32
$$

...REGIONAL REPORTS...


CITY           SKY/WX    TMP DP  RH WIND       PRES   REMARKS
CHICAGO O`HARE CLEAR     35  26  69 N7        30.13S WCI  29
KANKAKEE       CLEAR     35  30  83 N7        30.13R WCI  29
MOLINE         CLEAR     34  29  82 E7        30.12R WCI  28
MOUNT VERNON   PTCLDY    46  30  53 NE9       30.07R
PITTSFIELD     CLEAR     44  35  70 NE7       30.09R
QUINCY         PTCLDY    44  33  65 E10       30.06S
ROCKFORD       CLEAR     35  27  72 CALM      30.16R
$$


CITY           SKY/WX    TMP DP  RH WIND       PRES   REMARKS
BURLINGTON     PTCLDY    41  32  70 E12       30.08S WCI  34
CEDAR RAPIDS   PTCLDY    41  32  70 E9        30.09R
DES MOINES     MOCLDY    52  32  46 E8        30.03S
KIRKSVILLE     PTCLDY    44  31  60 E7        30.04S
OTTUMWA        MOCLDY    45  33  63 E9        30.05R
ST LOUIS       PTCLDY    50  32  50 E7        30.06R
$$


CITY           SKY/WX    TMP DP  RH WIND       PRES   REMARKS
TERRE HAUTE    PTCLDY    40  28  62 N6        30.10R
EVANSVILLE     CLEAR     47  37  68 NE8       30.06R
INDIANAPOLIS   CLEAR     37  26  64 N10       30.05S WCI  30
LAFAYETTE      CLEAR     34  27  75 N5        30.10R WCI  30
MADISON        CLEAR     32  27  81 CALM      30.16R
MILWAUKEE      PTCLDY    34  27  75 N6        30.15S WCI  29
$$





USA.gov is the U.S. government's official web portal to all federal, state and local government web resources and services.